Location: Hackberry
(29.5783°N, 96.8797°W)
Time: 23:45:45
(UTC+00:00)

Courier 1B - Pass Details

Date: 13 November 2024
Orbit: 962 x 1208 km, 28.3° (Epoch: 03 December)

Event Time Altitude Azimuth Distance (km) Brightness Sun altitude
Rises 01:27:09 0° 276° (W) 3,646 11.8 -24.8°
Reaches altitude 10° 01:29:51 10° 270° (W) 2,713 10.9 -25.4°
Maximum altitude 01:36:04 46° 199° (SSW) 1,312 8.3 -26.8°
Enters shadow 01:38:21 34° 153° (SSE) 1,592 8.4 -27.2°
